CAPE
0 0 0 0 0 0 5 0 0 17 7 109 76 244 82 75 52 228 498 380 234 342 542 652 558 597 697 889 1380 1353 2016 2443 2036 2005 1836 1830 1171 1581 1722 1737 2056 3144 3345 3492
0 0 0 0 0 0 0 0 0 0 53 45 71 364 108 75 109 323 383 456 465 335 365 665 681 590 582 872 1203 1562 1853 2318 2470 1878 1902 1574 1830 1272 1059 1387 2230 2919 2931 3590
0 0 0 0 0 0 0 0 0 1 78 20 87 90 202 304 806 794 571 737 702 640 478 568 674 622 556 887 1305 1600 1824 2823 2439 2126 2234 2671 2321 2398 1470 1186 1417 2348 2955 3531
0 0 0 0 0 0 0 0 0 11 99 73 76 107 385 166 224 363 573 703 715 840 764 361 504 572 582 820 1171 1708 1959 2359 2381 2548 1823 2067 1100 904 713 1276 1332 2168 2755 3043
0 0 0 0 0 0 0 0 0 2 1 11 76 84 33 82 113 63 242 645 556 933 830 587 362 477 514 701 1160 1472 2093 2191 2572 1936 2474 1752 1584 905 1445 1245 1758 2751 3189 3122
0 0 0 0 0 0 0 0 0 0 0 1 0 9 88 47 147 128 79 328 753 605 994 899 536 487 456 606 1011 1436 2211 2316 2543 2698 2177 3014 1743 1685 703 1431 1570 2315 2404 2881
0 0 0 0 0 0 0 0 0 0 0 0 0 0 1 60 104 79 124 282 500 952 1091 1117 845 508 565 639 806 1168 2328 2694 2705 2875 2694 2167 3209 1812 2006 2473 1544 1728 2016 2054
0 0 0 0 0 0 0 0 0 0 0 0 0 0 0 0 28 116 226 219 275 562 1165 1259 1177 693 611 601 863 1123 2107 2639 2961 2709 3290 2828 2665 2989 1489 1720 1707 1290 2113 1792
0 0 0 0 0 0 0 0 0 0 0 0 0 0 0 0 0 3 0 236 359 411 918 1172 1376 873 663 689 911 965 1815 2464 2838 3027 3305 3499 2683 2433 2738 1691 2118 2696 2291 1876
0 0 0 0 0 0 0 0 0 0 0 0 0 0 0 0 2 0 0 0 185 424 713 1051 1242 1147 813 703 921 985 1688 2313 2889 3162 3232 3322 3539 2572 2177 2923 1934 1747 2692 4180
0 0 0 0 0 0 0 0 0 0 0 0 0 4 18 45 0 2 0 0 1 358 586 870 1122 1391 1091 818 871 1089 1246 2490 2964 3288 3451 3400 3391 3541 2873 2184 2688 2278 2700 2809
0 0 0 0 0 0 0 0 0 0 0 0 0 1 0 10 5 0 0 10 0 47 532 878 1177 1354 1467 1265 1078 1271 1477 1797 2924 3391 3513 3478 3565 3632 3521 2873 2720 2814 3059 3919
0 0 0 0 0 1 0 0 0 0 0 0 0 0 0 0 0 3 0 0 105 225 846 1025 927 1188 1576 1650 1533 1468 1723 1851 2396 3234 3601 3592 3585 3684 3683 3578 2956 3187 3294 3113
0 0 0 0 0 0 0 0 0 0 0 0 0 0 0 0 0 0 0 0 8 463 447 997 1059 879 1475 1858 1948 1893 1796 1949 2195 2758 3413 3598 3647 3722 3814 3734 3637 3363 3224 3717
0 0 0 0 0 2 0 0 0 0 0 0 0 4 3 3 0 0 74 74 175 405 292 878 665 1015 1659 2333 2332 2324 2192 2126 2107 2526 3042 3421 3580 3767 3759 3820 3749 3804 3695 3454
0 0 0 0 0 1 0 0 0 0 0 0 0 16 20 1 0 0 12 0 25 1 4 19 64 255 1058 2173 2646 2639 2489 2726 2483 2720 2718 3334 3562 3730 3943 3880 3895 3819 3928 3863
1 0 0 0 0 0 0 0 0 0 0 0 0 54 207 14 5 4 36 0 0 0 84 0 0 610 1666 1751 2870 3111 2948 2773 3025 2971 3275 3393 3661 3752 3895 4066 4009 3998 3929 4020
8 0 0 1 31 0 0 0 0 1 0 0 0 5 10 34 43 40 17 0 0 0 15 66 0 24 581 346 434 2554 2716 3927 3217 3443 3582 3746 3910 3868 4021 4086 4177 4138 4079 4066
0 3 0 2 36 0 0 0 0 0 0 3 3 5 2 1 4 5 0 0 1 21 74 77 0 0 520 370 556 2480 2273 2922 4069 3594 3848 3482 3826 4091 4077 4168 4210 4284 4243 4261
0 0 0 0 21 1 0 0 0 0 2 351 5 0 0 0 0 419 768 362 335 459 656 649 463 328 597 767 248 2820 2424 3309 3578 3657 3567 3884 3695 4014 4147 4134 4292 4365 4404 4303
0 0 0 0 0 0 0 0 0 0 339 28 30 19 370 203 287 174 54 14 74 412 772 1265 973 742 1104 1742 2070 2104 2735 3281 3590 3637 3790 3814 3737 3970 4184 4329 4364 4436 4456 4343
42 0 0 0 0 0 0 0 40 65 93 31 0 0 0 0 0 0 0 1 47 528 728 1295 1542 1681 1579 1787 2262 3455 3331 3720 4333 4410 4027 3984 4325 3632 4089 4387 4428 4503 4498 4407
0 29 11 0 0 1 0 0 3 0 16 48 15 0 0 0 0 0 0 59 69 409 786 1909 2323 2514 2337 2770 3833 3478 3807 4750 5197 4497 4537 4367 4289 4342 3843 4391 4417 4520 4562 4481
0 0 0 0 0 0 0 0 0 0 0 0 38 18 0 0 0 0 0 0 14 151 354 1865 3170 2529 2932 2884 2673 4413 4712 4785 4916 5271 4806 4729 4650 4514 4390 4213 4405 4542 4460 4447
0 7 0 0 0 0 0 0 0 0 0 0 7 26 0 0 0 0 0 0 0 117 189 1960 2883 3216 3679 3957 3946 3776 4289 4336 3948 4977 4856 4769 4581 4446 4673 3607 3965 4295 4190 3883
17 7 0 0 3 1 0 0 0 0 0 0 0 0 0 0 0 0 0 0 0 76 230 1680 2279 2889 3895 4580 4580 4719 5161 4953 4328 4573 4620 4402 4050 4471 4358 3717 2924 3441 3623 3467
CIN
0 0 0 0 0 0 -1 0 0 -1 -3 -17 -2 -115 -232 -22 -45 -22 -6 -21 -30 -29 -13 -1 -1 -1 -2 -3 -11 -17 -9 -16 -16 -5 -3 -4 -13 -12 -9 -15 -10 -19 -4 -3
0 0 0 0 0 0 0 -1 0 0 -2 -40 -18 -63 -32 -38 -183 -87 -13 -67 -32 -19 -11 -3 -6 -3 -6 -19 -27 -20 -12 -20 -9 -11 -8 -6 -11 -12 -21 -17 -16 -8 -11 -5
0 0 0 0 0 0 0 0 0 -1 -2 -14 -2 -11 -131 -269 -195 -45 -12 -48 -7 -33 -19 -22 -12 -6 -26 -33 -33 -31 -17 -8 -12 -11 -8 -8 -11 -13 -19 -22 -15 -12 -6 -4
0 0 0 0 0 0 0 0 0 -3 -20 -22 -9 -22 -7 -1 -2 -2 -4 -19 -1 -12 -6 -25 -41 -33 -23 -39 -56 -55 -30 -10 -8 -14 -13 -7 -57 -62 -74 -28 -23 -17 -19 -8
0 0 0 0 0 0 0 0 0 -2 -2 -4 -4 -1 -1 -9 -4 0 -1 -5 -5 -7 -27 -30 -50 -78 -74 -52 -45 -56 -41 -22 -5 -31 -21 -43 -42 -82 -23 -28 -29 -29 -28 -19
0 0 0 0 0 0 0 0 0 0 0 0 0 -1 -17 -2 -4 0 -3 -1 -5 -6 -1 -18 -45 -58 -73 -56 -41 -36 -27 -38 -8 -8 -37 -17 -70 -49 -114 -31 -27 -17 -21 -21
0 0 0 0 0 0 0 0 0 0 0 0 0 0 0 -1 -14 -22 -2 -2 -1 -5 -6 -7 -39 -67 -93 -89 -70 -42 -20 -11 -9 -6 -23 -61 -11 -95 -67 -24 -40 -18 -12 -15
0 0 0 0 0 0 0 0 0 0 0 0 0 0 0 -1 -5 -1 -1 -8 -5 0 -8 -15 -35 -77 -115 -152 -139 -120 -69 -57 -24 -36 -16 -40 -43 -12 -121 -105 -54 -60 -13 -20
0 0 0 0 0 0 0 0 0 0 0 0 0 0 0 0 0 0 -1 -1 -4 -2 -1 -13 -20 -66 -116 -150 -166 -210 -161 -137 -90 -66 -21 -23 -76 -85 -58 -136 -79 -23 -44 -27
0 0 0 0 0 0 0 0 0 0 0 0 0 0 0 0 0 0 0 0 -2 -5 -1 -6 -10 -39 -97 -131 -167 -217 -185 -178 -130 -91 -80 -61 -52 -121 -130 -49 -120 -103 -42 -15
0 0 0 0 0 0 0 0 0 0 0 0 0 -1 -3 -26 0 -6 0 0 -2 -1 -6 -4 -10 -16 -60 -121 -147 -178 -197 -137 -100 -73 -67 -72 -74 -61 -100 -129 -80 -100 -69 -54
0 0 0 0 0 0 0 0 0 0 0 0 0 -8 -1 -2 -11 0 0 -3 0 -19 -5 -10 -4 -12 -24 -77 -127 -154 -163 -161 -142 -103 -65 -59 -44 -41 -53 -85 -76 -73 -42 -16
-2 0 0 0 0 0 0 0 0 0 0 0 0 0 0 0 0 -3 0 0 -34 -15 -13 -9 -5 -9 -20 -45 -116 -155 -167 -169 -131 -100 -58 -45 -46 -46 -39 -50 -95 -51 -46 -52
0 0 0 0 0 0 0 0 0 0 0 0 0 0 0 0 0 0 0 0 -128 -16 -16 -9 -16 -21 -28 -56 -97 -121 -157 -154 -154 -117 -92 -84 -76 -56 -38 -52 -64 -84 -76 -43
-1 0 0 0 0 -6 0 0 0 0 0 0 0 -36 -13 -120 0 0 -90 -77 -24 -9 -8 -16 -6 -22 -44 -59 -112 -113 -97 -140 -154 -180 -142 -142 -119 -74 -61 -55 -69 -62 -61 -73
0 0 0 0 0 -30 0 -1 0 0 0 0 0 -3 -7 -31 0 0 -146 0 -139 -19 -10 -101 -49 -34 -22 -62 -88 -97 -108 -81 -138 -163 -176 -160 -152 -121 -80 -85 -84 -66 -60 -71
0 -1 0 0 0 0 0 0 0 0 0 0 0 -34 -7 -18 -94 -188 -120 0 0 0 -46 0 0 -39 -34 -18 -41 -59 -105 -115 -112 -148 -152 -179 -176 -162 -142 -108 -93 -78 -83 -74
-2 0 0 -1 -4 0 0 0 0 -4 0 0 0 -5 -2 -8 -44 -142 -165 0 0 0 -139 -191 0 -137 -66 -76 -48 -79 -65 -102 -161 -156 -163 -163 -164 -180 -160 -138 -103 -104 -104 -106
-1 -2 0 -4 -2 0 0 0 0 0 0 -36 -20 -11 -33 -37 -18 -39 0 0 -34 -279 -196 -196 0 0 -59 -79 -109 -90 -123 -121 -124 -185 -190 -218 -167 -145 -166 -157 -134 -114 -110 -109
0 0 0 0 -3 -2 0 0 0 0 -2 -90 -26 0 0 0 0 -85 -75 -142 -142 -129 -78 -99 -144 -177 -147 -207 -85 -87 -105 -118 -188 -215 -240 -211 -197 -191 -193 -179 -148 -129 -117 -128
0 0 0 0 0 -1 0 0 0 0 -46 -105 -152 -136 -94 -60 -141 -329 -307 -222 -338 -242 -165 -101 -129 -177 -198 -165 -163 -91 -41 -74 -172 -216 -224 -237 -273 -224 -184 -136 -119 -104 -107 -115
-9 0 0 0 0 -5 0 0 -18 -13 -31 -60 0 0 0 0 0 -183 0 -112 -462 -277 -239 -140 -114 -121 -153 -181 -193 -128 -144 -128 -139 -135 -208 -251 -223 -262 -162 -137 -114 -79 -79 -104
-2 -12 -1 0 0 -11 0 0 0 -1 -4 -19 -31 0 0 0 0 0 0 -532 -439 -355 -273 -97 -61 -68 -113 -101 -51 -78 -161 -90 -20 -111 -146 -194 -210 -191 -204 -118 -104 -69 -62 -82
0 0 0 -3 0 0 0 0 0 0 0 0 -7 -19 -1 0 0 0 0 0 -623 -440 -406 -50 -1 -17 -34 -77 -93 -46 -51 -48 -65 -22 -105 -111 -119 -143 -136 -88 -76 -52 -65 -85
0 0 0 0 0 0 0 0 0 0 0 0 0 -3 -1 0 0 0 0 0 0 -477 -441 -27 -4 -15 -10 -7 -12 -52 -66 -94 -149 -59 -73 -84 -88 -123 -64 -102 -106 -90 -78 -133
0 0 0 0 -6 -7 0 0 0 0 0 0 0 0 0 0 0 0 0 0 0 -502 -403 -47 -19 -1 -2 -4 -5 -11 -13 -37 -118 -98 -87 -108 -117 -61 -62 -136 -197 -127 -127 -143
Wind_Speed
nan nan nan nan nan nan nan nan nan nan nan 6 nan 42 nan nan nan 16 23 32 25 18 14 13 8 10 13 12 11 9 9 10 9 9 7 8 6 6 7 9 7 2 2 4
nan nan nan nan nan nan nan nan nan nan nan nan nan 40 38 nan 32 31 29 10 27 20 18 13 9 8 10 10 11 10 8 9 11 11 10 8 7 5 5 6 6 2 4 4
nan nan nan nan nan nan nan nan nan nan nan nan nan nan 30 32 31 31 35 33 24 21 17 12 10 5 10 9 9 8 7 11 12 11 11 9 8 10 7 4 3 3 2 4
nan nan nan nan nan nan nan nan nan nan nan nan nan 21 10 6 16 32 40 39 28 21 16 15 11 5 8 8 9 11 10 12 13 9 8 9 10 7 5 4 5 2 6 6
nan nan nan nan nan nan nan nan nan nan nan nan nan nan nan nan 4 nan 37 42 24 25 17 19 11 6 6 9 10 12 12 11 10 7 12 10 7 6 7 8 4 0 6 7
nan nan nan nan nan nan nan nan nan nan nan nan nan nan nan nan 18 10 nan 25 34 29 16 14 14 8 7 10 13 13 12 10 8 8 5 8 5 6 6 5 3 4 5 8
nan nan nan nan nan nan nan nan nan nan nan nan nan nan nan nan 27 nan 17 29 25 34 21 13 13 9 11 10 12 13 13 9 8 5 4 1 5 4 1 1 3 3 6 7
nan nan nan nan nan nan nan nan nan nan nan nan nan nan nan nan nan 12 17 32 29 26 30 19 15 12 12 12 15 12 13 10 8 6 6 5 4 2 4 4 2 5 5 7
nan nan nan nan nan nan nan nan nan nan nan nan nan nan nan nan nan nan nan 19 34 31 26 22 19 14 16 14 12 9 13 10 8 8 5 6 5 8 7 7 7 6 8 5
nan nan nan nan nan nan nan nan nan nan nan nan nan nan nan nan nan nan nan nan 17 31 24 25 21 18 15 15 12 10 11 12 8 7 6 7 12 13 10 10 9 7 7 9
nan nan nan nan nan nan nan nan nan nan nan nan nan nan nan nan nan nan nan nan nan 21 28 19 19 20 16 12 14 12 8 10 7 8 10 10 11 14 15 13 13 11 11 8
nan nan nan nan nan nan nan nan nan nan nan nan nan nan nan nan nan nan nan nan nan nan 24 20 21 20 18 19 16 13 9 7 8 9 8 9 10 13 14 14 14 14 11 12
nan nan nan nan nan nan nan nan nan nan nan nan nan nan nan nan nan nan nan nan 24 21 25 31 26 22 21 20 16 13 11 9 9 9 11 12 15 15 11 14 16 14 13 9
nan nan nan nan nan nan nan nan nan nan nan nan nan nan nan nan nan nan nan nan nan 22 20 22 23 26 18 17 16 15 14 12 12 10 11 13 15 15 14 14 18 20 13 11
nan nan nan nan nan nan nan nan nan nan nan nan nan nan nan nan nan nan nan nan 38 24 25 29 17 23 17 20 16 15 14 14 10 12 12 13 14 13 14 14 14 14 13 9
nan nan nan nan nan nan nan nan nan nan nan nan nan nan nan nan nan nan nan nan nan nan nan nan nan 35 29 21 21 16 13 13 13 10 9 11 14 16 10 12 12 13 14 12
nan nan nan nan nan nan nan nan nan nan nan nan nan nan 16 nan nan nan nan nan nan nan nan nan nan 34 35 25 17 20 14 15 14 9 6 10 15 11 10 12 13 12 12 12
nan nan nan nan nan nan nan nan nan nan nan nan nan nan nan nan nan nan nan nan nan nan nan nan nan nan 23 17 18 25 24 21 17 12 9 10 14 13 13 12 13 12 14 16
nan nan nan nan nan nan nan nan nan nan nan nan nan nan nan nan nan nan nan nan nan nan nan nan nan nan 26 21 21 29 27 23 23 17 13 13 17 15 15 16 18 17 17 17
nan nan nan nan nan nan nan nan nan nan nan 77 nan nan nan nan nan 65 53 57 53 49 42 38 38 39 44 46 46 35 29 27 21 17 19 24 20 23 21 24 25 24 23 19
nan nan nan nan nan nan nan nan nan nan 55 nan nan nan 89 74 76 64 nan nan nan 49 41 36 29 27 30 31 32 31 20 12 15 25 28 25 26 26 30 32 34 27 23 23
nan nan nan nan nan nan nan nan nan nan nan nan nan nan nan nan nan nan nan nan nan 48 44 40 34 30 28 27 30 26 22 13 18 31 29 30 31 33 34 31 30 26 24 23
nan nan nan nan nan nan nan nan nan nan nan nan nan nan nan nan nan nan nan nan nan 51 44 39 35 31 26 25 26 21 19 19 27 24 27 28 28 29 31 30 28 27 25 24
nan nan nan nan nan nan nan nan nan nan nan nan nan nan nan nan nan nan nan nan nan 54 49 43 36 33 31 25 24 23 25 26 25 21 25 27 26 27 27 27 29 27 27 26
nan nan nan nan nan nan nan nan nan nan nan nan nan nan nan nan nan nan nan nan nan 51 49 46 44 41 38 35 30 29 27 29 28 26 27 27 26 30 31 42 34 30 38 32
nan nan nan nan nan nan nan nan nan nan nan nan nan nan nan nan nan nan nan nan nan nan 49 44 42 41 41 41 35 35 32 30 30 28 29 31 31 33 34 44 48 55 51 47
Wind_Direction
nan nan nan nan nan nan nan nan nan nan nan 13 nan 276 nan nan nan 136 352 344 346 342 327 308 291 252 229 233 235 240 217 204 225 212 212 187 178 179 164 151 137 346 259 330
nan nan nan nan nan nan nan nan nan nan nan nan nan 292 307 nan 342 17 347 26 332 335 330 319 309 263 231 241 247 244 216 222 221 211 214 200 205 188 178 170 149 222 295 327
nan nan nan nan nan nan nan nan nan nan nan nan nan nan 307 341 346 344 319 347 327 332 333 321 306 266 232 249 257 259 233 222 215 223 210 212 206 198 208 167 171 244 283 332
nan nan nan nan nan nan nan nan nan nan nan nan nan 252 88 200 306 312 319 319 315 328 331 326 317 260 238 235 256 259 237 218 216 200 217 210 213 210 170 215 213 238 348 351
nan nan nan nan nan nan nan nan nan nan nan nan nan nan nan nan 311 nan 306 315 319 319 337 333 325 274 234 257 261 260 251 229 205 190 185 219 212 197 213 208 232 257 316 333
nan nan nan nan nan nan nan nan nan nan nan nan nan nan nan nan 294 268 nan 338 329 326 335 339 318 260 222 252 269 268 269 248 210 217 211 199 248 217 219 231 208 275 283 322
nan nan nan nan nan nan nan nan nan nan nan nan nan nan nan nan 304 nan 311 321 331 319 322 324 307 262 264 271 290 286 279 274 261 244 269 301 216 305 190 285 306 284 305 314
nan nan nan nan nan nan nan nan nan nan nan nan nan nan nan nan nan 321 310 309 311 311 306 311 310 274 274 289 302 305 300 295 300 309 311 319 356 284 0 7 317 321 288 308
nan nan nan nan nan nan nan nan nan nan nan nan nan nan nan nan nan nan nan 283 296 299 299 303 301 293 279 285 309 328 308 308 318 326 309 342 0 25 337 338 306 279 296 253
nan nan nan nan nan nan nan nan nan nan nan nan nan nan nan nan nan nan nan nan 242 288 302 302 293 295 286 284 288 298 291 307 305 318 337 356 1 3 354 316 335 325 288 271
nan nan nan nan nan nan nan nan nan nan nan nan nan nan nan nan nan nan nan nan nan 260 290 302 293 291 291 285 276 275 268 283 307 324 334 354 349 339 342 342 320 313 300 295
nan nan nan nan nan nan nan nan nan nan nan nan nan nan nan nan nan nan nan nan nan nan 273 288 301 309 296 279 281 283 272 277 298 303 316 332 335 344 355 357 342 335 324 308
nan nan nan nan nan nan nan nan nan nan nan nan nan nan nan nan nan nan nan nan 216 252 220 273 289 294 294 285 275 278 273 283 279 299 324 334 339 337 341 349 359 352 351 357
nan nan nan nan nan nan nan nan nan nan nan nan nan nan nan nan nan nan nan nan nan 235 234 263 286 296 281 279 277 269 275 279 291 309 324 336 342 336 315 317 340 348 352 346
nan nan nan nan nan nan nan nan nan nan nan nan nan nan nan nan nan nan nan nan 215 223 210 217 230 293 276 262 267 262 257 271 290 305 328 351 335 329 321 315 334 350 350 356
nan nan nan nan nan nan nan nan nan nan nan nan nan nan nan nan nan nan nan nan nan nan nan nan nan 220 236 243 250 268 265 268 273 284 339 323 327 329 3 354 357 354 355 356
nan nan nan nan nan nan nan nan nan nan nan nan nan nan 269 nan nan nan nan nan nan nan nan nan nan 230 234 233 231 241 249 252 241 241 288 313 319 340 358 353 359 360 355 345
nan nan nan nan nan nan nan nan nan nan nan nan nan nan nan nan nan nan nan nan nan nan nan nan nan nan 238 236 230 236 244 256 259 234 250 298 313 320 324 339 346 344 340 350
nan nan nan nan nan nan nan nan nan nan nan nan nan nan nan nan nan nan nan nan nan nan nan nan nan nan 222 236 246 256 261 261 258 253 259 281 296 300 311 327 327 323 322 324
nan nan nan nan nan nan nan nan nan nan nan 188 nan nan nan nan nan 224 220 212 212 211 212 213 208 205 215 216 219 252 256 255 266 272 268 272 285 301 313 316 316 304 308 310
nan nan nan nan nan nan nan nan nan nan 204 nan nan nan 208 213 216 226 nan nan nan 214 213 217 222 220 220 221 225 245 244 265 284 271 269 271 280 287 294 295 303 302 297 299
nan nan nan nan nan nan nan nan nan nan nan nan nan nan nan nan nan nan nan nan nan 208 206 207 214 221 220 223 227 233 233 206 239 258 266 271 272 276 281 289 291 290 286 288
nan nan nan nan nan nan nan nan nan nan nan nan nan nan nan nan nan nan nan nan nan 208 209 210 213 217 226 229 231 232 234 226 221 244 257 263 264 264 268 276 281 276 275 274
nan nan nan nan nan nan nan nan nan nan nan nan nan nan nan nan nan nan nan nan nan 204 203 208 215 221 221 237 236 240 232 232 236 240 251 255 261 263 265 261 269 270 274 273
nan nan nan nan nan nan nan nan nan nan nan nan nan nan nan nan nan nan nan nan nan 211 206 205 213 222 221 230 240 245 241 241 233 243 248 256 260 264 265 261 250 266 264 265
nan nan nan nan nan nan nan nan nan nan nan nan nan nan nan nan nan nan nan nan nan nan 214 211 210 215 221 226 233 235 230 243 247 246 250 253 256 261 265 266 261 248 252 255